Weather in Murzino

Russia / Nizhny Novgorod Oblast'     57°06′41″N   43°27′09″E
temp.,
°C
wind,
m/s
gust,
m/s
humid.,
%
clouds,
%
prec.,
mm/h
press.,
hPa
HPBL,
m
21 april, wed
wed2100:00+4ese71658100 0.0 1020600
03:00+4ese81758100 0.1 1016776
06:00+1ese102195100 5.8 1013973
09:00+2se91892100 8.6 1012865
12:00+5se101886100 0.0 1010969
15:00+6se101785100 0.0 1010912
18:00+6sse81689100 0.3 1010796
21:00+6s3897100 1.9 1011434
22 april, thu
thu2200:00+4sw2797100 2.1 1012393
03:00+3ssw4894100 2.3 1014389
06:00+3ssw4895100 0.1 1016365
09:00+5s4789100 0.1 1017363
12:00+8s4677100 0.2 1018922
15:00+7ssw478397 0.4 1018900
18:00+6ssw378368 0.1 1019441
21:00+6s3879100 0.1 1021159
23 april, fri
fri2300:00+4s239179 0.0 102145
03:00+4sse388998 0.0 1020120
06:00+6se51185100 0.0 1020274
09:00+9sse6127646 0.0 1021450
12:00+13s7966100 0.1 1020906
15:00+12s596990 0.2 1020671
18:00+12s51075100 1.1 1020457
21:00+8se388667 1.5 1020147
24 april, sat
sat2400:00+8se498683 0.0 1018144
03:00+7se4108588 0.0 1017215
06:00+7ese4118657 0.0 1016275
09:00+12se7127063 0.0 1014826
12:00+14se795750 0.4 10121595
15:00+14se6955100 1.6 10101696
18:00+12ese5116295 0.1 1008528
21:00+9ese71476100 0.1 1007678
25 april, sun
sun2500:00+8ese61282100 0.1 1004888
03:00+3sw4998100 5.8 1005547
06:00+4wsw4996100 3.4 1005613
09:00+5wsw6880100 4.3 1005926
12:00+5sw697799 0.3 1007976
15:00+8wsw595660 1.0 10081523
18:00+6w4874100 1.0 1009622
21:00+2sw39845 1.3 1010213